{"data":{"norad_id":56381,"epoch":"2026-05-24T23:30:19.596672Z","epoch_age_seconds":80767,"freshness":"FRESH","line1":"1 56381U 23061H   26144.97939348 -.00000708  00000+0 -16208-4 0  9991","line2":"2 56381  43.0012 127.3569 0000910 261.4206  98.6543 15.27584606168418","mean_motion":15.27584606,"eccentricity":9.1e-5,"inclination_deg":43.0012,"raan_deg":127.3569,"arg_perigee_deg":261.4206,"mean_anomaly_deg":98.6543,"bstar":-1.6208e-5,"rev_number":16841,"period_min":94.266464478891,"perigee_km":482.41093737364,"apogee_km":483.65967073298,"semimajor_km":6861.1723040533,"source":"CELESTRAK","updated_at":"2026-05-25T13:38:18.011412Z"}}